星链-37106(STARLINK-37106)

导读

STARLINK-37106(NORAD编号68219)是美国SpaceX公司星链(Starlink)星座中的一颗卫星。星链星座旨在通过近地轨道卫星群提供全球宽带互联网接入,该卫星配备先进通信天线与氩气离子推进系统,依靠太阳能供电,可实现轨道机动与脱轨处置。2025年12月,该卫星出现异常,轨道高度骤降约4000米,疑似发生爆炸,产生数十块碎片后与地面失联。SpaceX监测显示,卫星大致保持完整但处于翻滚状态,预计会在几周内再入大气层烧毁,目前相关方正持续监测碎片轨迹。

Basic Information
目录编号:
68219
目录名称:
STARLINK-37106
国际标识:
2026-053N
轨道中心:
EARTH
卫星名称:
星链-37106
卫星全名:
星链-37106(STARLINK-37106)
卫星状态:
在轨 (已飞行171 天)
发射日期:
2026-03-17 UTC
国别 :
美国 (US)
星等 :
--
Orbit Information
数据来源 国际轨道数据
星历时间: 2026-09-02T13:33:28+0800
1天前
查看轨道信息
半长轴: 6843.715km
偏心率: 0.0001458
轨道倾角: 97.285°
近地点辐角 121.201°
升交点赤经 119.267°
平近点角 238.938°
近地点: 464.58km
远地点: 466.576km
周期: 93.907分钟
每日圈数: 15.334335
Detailed Information
固有亮度:
5
最大亮度:
2.5
卫星平台:
Starlink V1.0
覆盖范围:
全球
运营商:
太空探索技术公司
运营商所在国:
美国
制造商(研发单位):
太空探索技术公司
制造商所在国:
美国
使用方式:
暂无
Satellite Introduction
Starlink 计划是 SpaceX 推出的全球卫星互联网项目,通过发射低轨道卫星,为全球尤其是偏远地区提供高速、低延迟的互联网服务。自 2019 年起,Starlink 已部署数千颗卫星,旨在缩小全球数字鸿沟,推动互联网普及。该项目还为军事、航空等行业提供通信支持,带来广泛经济效益。
2D Orbit Map
3D Orbit Map
Orbit Altitude Analysis Chart
Orbit Inclination Analysis Chart
Orbit Comprehensive Analysis Chart
View Comprehensive Chart
Conjunction Data List
Event ID Objects TCA Miss Dist (km) Collision Risk Probability Collision Risk Index (CRI) Action
CDM_260903-145806-821906-862824
MISR-C-1 (68628)
2026-09-03T
14:58:04+0000
1.428 km
极远距离
7.23072E-6 低风险 0.52
CDM_260831-135906-801606-821921
2026-08-31T
13:59:40+0000
1.944 km
极远距离
2.254412E-6 低风险 0.42
CDM_260904-024705-718606-821922
OBJECT W (57186)
2026-09-04T
02:47:41+0000
2.678 km
极远距离
1.57881E-6 低风险 0.39
CDM_260903-125604-702906-821921
2026-09-03T
12:56:54+0000
2.785 km
极远距离
1.4948E-6 低风险 0.38
CDM_260903-113105-212206-821922
2026-09-03T
11:31:35+0000
2.875 km
极远距离
1.348844E-6 低风险 0.38
CDM_260904-110005-212206-821921
2026-09-04T
11:00:33+0000
2.998 km
极远距离
1.292567E-6 低风险 0.37
CDM_260905-071506-371006-821921
2026-09-05T
07:15:14+0000
2.450 km
极远距离
1.085387E-6 低风险 0.36
CDM_260901-024805-364106-821921
2026-09-01T
02:48:08+0000
2.585 km
极远距离
1.04733E-6 低风险 0.35
CDM_260905-143606-821906-968721
2026-09-05T
14:36:52+0000
2.207 km
极远距离
9.715303E-7 极低风险 0.35
CDM_260905-045406-371006-821921
2026-09-05T
04:54:03+0000
2.930 km
极远距离
8.368396E-7 极低风险 0.33